USA 270

Last updated on Sun Aug 09 2026 00:03:01 GMT+0000 (Coordinated Universal Time)

1 41744U 16052A 26219.53576314 -.00000357 00000+0 00000+0 0 9992 2 41744 4.3247 76.5199 0010024 104.9956 92.6705 1.00255160 28649
UTC large
Height (km)
Speed (km/s)
/
Latitude / Longitude
Inclination (degrees)
Orbital Period (minutes)
Azimuth
Elevation
Range (km)
Doppler Factor

Next 0 passes for location: London (51.5072 / 0.1276)

No passes found over London.
USA 270